Tracking 19709 objects as of 19-Jun-2019
HD Live streaming from Space Station
objects crossing your sky now

COSMOS 2065

Track COSMOS 2065 now!
10-day predictions
COSMOS 2065 is classified as:


NORAD ID: 20550
Int'l Code: 1990-029B
Perigee: 1,468.4 km
Apogee: 1,481.9 km
Inclination: 74.0 °
Period: 115.3 minutes
Semi major axis: 7846 km
RCS: 0.6645 m2 (medium)
Launch date: April 6, 1990
Source: Commonwealth of Independent States (former USSR) (CIS)
Launch site: PLESETSK MISSILE AND SPACE COMPLEX (PKMTR)
aabbcc
Your satellite tracking list
Your tracking list is empty




NASA's NSSDC Master Catalog

Two Line Element Set (TLE):
1 20550U 90029B   19169.96511780 -.00000022 +00000-0 -40058-4 0  9992
2 20550 073.9822 099.2113 0008621 204.5640 225.2719 12.49162849331627
Source of the keplerian elements: AFSPC